Date,TemperatureHighF,TemperatureAvgF,TemperatureLowF,DewpointHighF,DewpointAvgF,DewpointLowF,HumidityHigh,HumidityAvg,HumidityLow,PressureMaxIn,PressureMinIn,WindSpeedMaxMPH,WindSpeedAvgMPH,GustSpeedMaxMPH,PrecipitationSumIn
2014-1-1,44,36,30,33,27,22,83,68,51,0.00,40.00,8,6,14,0.00
2014-1-2,43,32,16,43,32,12,100,96,83,0.00,40.00,14,8,42,0.38
2014-1-3,27,19,11,13,9,6,87,64,42,0.00,40.00,12,6,35,0.01
2014-1-4,40,30,20,33,16,-100,97,59,43,0.00,40.00,12,9,25,0.01
2014-1-5,49,38,28,49,37,28,100,99,93,0.00,40.00,12,8,32,0.50
2014-1-6,28,10,1,28,4,-6,100,78,57,0.00,40.00,10,8,25,0.50
2014-1-7,21,9,-4,5,-2,-7,86,63,39,0.00,40.00,9,4,21,0.03
2014-1-8,36,26,13,14,8,-6,68,47,34,0.00,40.00,7,5,10,0.04
2014-1-9,42,35,30,40,21,10,100,59,42,0.00,40.00,11,7,20,0.06
2014-1-10,47,43,40,47,43,40,100,100,100,0.00,40.00,9,7,17,0.13
2014-1-11,56,49,39,54,41,-100,100,80,42,0.00,40.00,12,9,28,1.74
2014-1-12,55,44,35,38,33,26,100,69,33,0.00,40.00,9,6,23,0.04
2014-1-13,47,43,39,43,38,30,100,85,53,0.00,40.00,11,8,24,0.52
2014-1-14,53,44,37,45,36,29,100,75,42,0.00,40.00,9,5,35,0.44
2014-1-15,43,33,20,36,24,16,94,72,40,0.00,40.00,9,6,21,0.01
2014-1-16,40,29,17,19,16,14,91,62,34,0.00,40.00,10,6,20,0.00
2014-1-17,39,32,22,28,19,10,77,60,41,0.00,40.00,13,8,27,0.00
2014-1-18,38,28,16,15,10,-100,85,51,28,0.00,40.00,10,7,27,0.00
2014-1-19,45,38,32,28,24,14,74,57,39,0.00,40.00,9,6,19,0.00
2014-1-20,57,45,35,27,26,23,67,47,31,0.00,40.00,9,6,22,0.00
2014-1-21,47,30,14,30,22,6,95,73,46,0.00,40.00,12,10,27,0.02
2014-1-22,27,17,7,8,0,-4,71,49,27,0.00,40.00,11,6,22,0.01
2014-1-23,25,18,8,14,4,-6,76,55,31,0.00,40.00,9,6,20,0.01
2014-1-24,25,13,0,3,-1,-4,86,56,27,0.00,40.00,11,5,19,0.00
2014-1-25,37,27,19,20,7,-100,63,44,36,0.00,40.00,13,9,30,0.00
2014-1-26,50,39,27,28,21,3,72,48,34,0.00,40.00,16,7,34,0.00
2014-1-27,46,34,15,31,14,-3,79,46,23,0.00,40.00,13,9,27,0.00
2014-1-28,16,13,7,11,5,-1,88,69,48,0.00,40.00,10,7,23,0.00
2014-1-29,27,13,1,0,-4,-10,72,49,26,0.00,40.00,8,5,19,0.08
2014-1-30,35,24,11,12,4,-6,54,43,31,0.00,40.00,7,6,16,0.01
2014-1-31,48,38,27,21,14,10,54,39,27,0.00,40.00,8,5,12,0.00
2014-2-1,51,43,38,44,25,-100,99,56,25,0.00,40.00,10,6,15,0.00
2014-2-2,51,47,43,51,47,43,100,100,99,0.00,40.00,9,5,16,1.38
2014-2-3,45,37,31,45,36,31,100,97,88,0.00,40.00,13,6,28,2.36
2014-2-4,44,39,35,44,39,35,100,100,99,0.00,40.00,14,8,25,0.06
2014-2-5,47,35,23,47,34,21,100,96,87,0.00,40.00,11,8,26,0.48
2014-2-6,30,24,21,23,21,19,99,89,74,0.00,40.00,9,6,19,0.02
2014-2-7,37,28,19,26,23,19,100,81,58,0.00,40.00,7,4,14,0.01
2014-2-8,41,35,30,35,30,23,97,83,69,0.00,40.00,6,4,15,0.01
2014-2-9,45,39,35,38,36,34,100,90,76,0.00,40.00,7,4,17,0.00
2014-2-10,36,32,27,36,29,23,100,91,75,0.00,40.00,8,6,18,0.02
2014-2-11,38,31,26,23,20,14,85,64,43,0.00,40.00,7,5,16,0.02
2014-2-12,32,29,26,31,26,13,100,90,46,0.00,40.00,9,6,18,0.03
2014-2-13,44,33,28,32,28,24,100,84,45,0.00,40.00,10,6,23,0.71
2014-2-14,49,40,30,39,33,25,100,76,54,0.00,40.00,13,7,30,0.27
2014-2-15,39,31,22,39,20,-100,100,71,49,0.00,40.00,14,6,33,0.28
2014-2-16,56,42,31,30,26,20,70,55,33,0.00,40.00,9,5,23,0.00
2014-2-17,56,46,35,52,37,30,100,75,43,0.00,40.00,11,8,26,0.25
2014-2-18,59,50,39,57,34,26,100,56,34,0.00,40.00,9,5,22,0.25
2014-2-19,68,60,56,60,55,48,100,85,51,0.00,40.00,14,8,33,0.10
2014-2-20,65,60,56,60,58,56,100,92,78,0.00,40.00,15,9,34,0.02
2014-2-21,63,46,36,60,29,14,100,58,26,0.00,40.00,15,7,40,1.25
2014-2-22,61,50,41,23,17,-100,42,29,17,0.00,40.00,10,6,19,0.05
2014-2-23,66,55,41,36,27,21,78,36,22,0.00,40.00,14,7,26,0.00
2014-2-24,53,42,31,35,21,10,95,49,20,0.00,40.00,10,6,26,0.00
2014-2-25,55,43,34,26,20,11,58,40,31,0.00,40.00,9,5,22,0.00
2014-2-26,37,30,19,21,13,2,75,51,29,0.00,40.00,12,8,25,0.00
2014-2-27,43,28,16,12,7,4,58,42,23,0.00,40.00,10,5,19,0.00
2014-2-28,46,37,24,22,11,7,54,35,24,0.00,40.00,10,7,24,0.00
2014-3-1,48,44,40,39,30,-100,73,60,43,0.00,40.00,9,6,24,0.00
2014-3-2,67,57,47,52,46,38,76,67,58,0.00,40.00,12,7,24,0.00
2014-3-3,61,32,21,52,32,21,100,97,61,0.00,40.00,13,8,32,0.62
2014-3-4,39,30,22,32,28,22,100,92,76,0.00,40.00,6,4,17,0.01
2014-3-5,54,42,30,37,32,24,100,72,45,0.00,40.00,7,5,12,0.00
2014-3-6,49,42,38,38,29,23,93,62,35,0.00,40.00,9,6,15,0.01
2014-3-7,63,49,40,38,31,27,93,52,30,0.00,40.00,6,4,14,0.01
2014-3-8,64,53,43,38,32,-100,65,47,32,0.00,40.00,10,5,20,0.00
2014-3-9,63,51,41,41,38,32,98,64,31,0.00,40.00,8,5,18,0.00
2014-3-10,69,57,45,44,38,34,82,53,30,0.00,40.00,9,6,22,0.00
2014-3-11,71,61,49,51,46,38,88,61,40,0.00,40.00,9,6,18,0.00
2014-3-12,64,49,33,58,44,24,100,84,63,0.00,40.00,16,11,40,0.06
2014-3-13,48,36,26,25,17,10,87,50,23,0.00,40.00,11,7,27,0.01
2014-3-14,61,50,39,34,24,13,52,36,27,0.00,40.00,12,7,25,0.00
2014-3-15,65,55,48,42,36,-100,59,51,39,0.00,40.00,8,5,16,0.00
2014-3-16,56,50,47,51,48,39,100,91,54,0.00,40.00,14,8,28,0.83
2014-3-17,51,40,36,51,38,-100,100,98,100,0.00,40.00,7,4,15,0.31
2014-3-18,46,42,39,45,42,39,100,99,94,0.00,40.00,13,7,25,0.03
2014-3-19,52,46,43,50,46,43,100,99,88,0.00,40.00,12,8,25,0.01
2014-3-20,59,47,34,48,27,-100,100,56,19,0.00,40.00,10,6,20,0.01
2014-3-21,65,54,45,28,22,-100,38,30,22,0.00,40.00,8,6,16,0.00
2014-3-22,64,57,53,43,33,-100,61,43,30,0.00,40.00,8,4,16,0.00
2014-3-23,54,45,39,42,36,28,100,74,41,0.00,40.00,12,8,23,0.44
2014-3-24,53,48,41,20,16,12,40,28,21,0.00,40.00,7,5,12,0.00
2014-3-25,42,34,26,26,20,13,75,56,36,0.00,40.00,11,7,29,0.02
2014-3-26,48,34,20,15,10,4,80,43,16,0.00,40.00,8,5,20,0.01
2014-3-27,61,48,37,35,17,9,45,29,19,0.00,40.00,17,10,37,0.00
2014-3-28,58,53,49,56,52,35,100,98,45,0.00,40.00,15,7,36,0.31
2014-3-29,54,46,38,54,44,-100,100,97,91,0.00,40.00,15,9,38,0.62
2014-3-30,59,45,35,38,32,28,100,66,30,0.00,40.00,9,7,26,0.01
2014-3-31,73,56,42,31,25,17,62,34,13,0.00,40.00,7,5,12,0.00
2014-4-1,78,68,60,35,26,15,30,21,9,0.00,40.00,9,7,20,0.00
2014-4-2,79,67,59,54,44,32,67,44,23,0.00,40.00,10,6,24,0.00
2014-4-3,75,67,62,60,57,54,90,71,53,0.00,40.00,12,7,26,0.00
2014-4-4,67,60,49,61,56,42,100,88,67,0.00,40.00,13,9,31,0.20
2014-4-5,59,47,36,42,33,-100,96,66,34,0.00,40.00,11,6,22,0.03
2014-4-6,60,51,44,48,37,31,100,61,45,0.00,40.00,11,6,18,0.39
2014-4-7,58,51,46,58,50,43,100,97,83,0.00,40.00,18,10,30,2.06
2014-4-8,58,49,39,46,41,37,100,75,46,0.00,40.00,9,6,20,0.02
2014-4-9,63,53,42,45,37,28,100,62,29,0.00,40.00,9,5,23,0.02
2014-4-10,71,60,47,37,34,28,57,38,26,0.00,40.00,11,8,22,0.00
2014-4-11,72,62,53,54,44,36,100,54,40,0.00,40.00,13,7,32,0.27
2014-4-12,76,64,53,56,50,-100,100,66,38,0.00,40.00,9,6,19,0.28
2014-4-13,77,69,61,54,51,47,66,53,41,0.00,40.00,13,9,26,0.00
2014-4-14,68,61,57,60,56,52,100,85,57,0.00,40.00,11,8,25,0.36
2014-4-15,57,40,30,57,36,25,100,86,59,0.00,40.00,12,9,28,0.31
2014-4-16,58,42,28,27,24,19,89,52,28,0.00,40.00,10,7,27,0.02
2014-4-17,62,52,42,39,32,26,57,47,38,0.00,40.00,14,9,29,0.00
2014-4-18,58,54,52,40,36,32,60,51,46,0.00,40.00,9,6,19,0.00